Volver al catálogo

STARLINK-3934

ActivoComunicacionesVLEO
NORAD 52675·PAYLOAD·🇺🇸 United States

Lanzado May 18, 2022 desde Cape Canaveral Space Force Station

Loading…

Próximos Pases (próximas 24 horas)

TLE

ActualizadoSource: CelesTrak SupGP

Época: Sep 14, 2026, 21:04 UTC

1 52675C 22053V   26257.87826389 -.00011417  00000+0 -36700-3 0  2571
2 52675  53.1601   6.0984 0000885  80.6528 105.9436 15.31719571    19

Sigue STARLINK-3934 en tiempo real con AllMySat

Download on the App Store